Time,TemperatureF,DewpointF,PressureIn,WindDirection,WindDirectionDegrees,WindSpeedMPH,WindSpeedGustMPH,Humidity,HourlyPrecipIn,Conditions,Clouds,dailyrainin,SoftwareType,DateUTC
2013-06-01 00:00:00,64.6,62.5,29.74,SSW,202,1.0,5.0,93,0.00,,,0.00,VWS V14.00,2013-06-01 05:00:00,
2013-06-01 00:05:00,64.5,62.4,29.73,South,180,1.0,5.0,93,0.00,,,0.00,VWS V14.00,2013-06-01 05:05:00,
2013-06-01 00:10:00,64.5,62.4,29.73,South,180,1.0,4.0,93,0.00,,,0.00,VWS V14.00,2013-06-01 05:10:00,
2013-06-01 00:15:00,64.4,62.3,29.72,South,180,0.0,3.0,93,0.00,,,0.00,VWS V14.00,2013-06-01 05:15:00,
2013-06-01 00:20:00,64.4,62.3,29.72,South,180,0.0,3.0,93,0.00,,,0.00,VWS V14.00,2013-06-01 05:20:00,
2013-06-01 00:25:00,64.3,62.2,29.72,South,180,0.0,3.0,93,0.00,,,0.00,VWS V14.00,2013-06-01 05:25:00,
2013-06-01 00:30:00,64.1,62.0,29.72,South,180,0.0,3.0,93,0.00,,,0.00,VWS V14.00,2013-06-01 05:30:00,
2013-06-01 00:35:00,64.0,61.9,29.72,South,180,0.0,0.0,93,0.00,,,0.00,VWS V14.00,2013-06-01 05:35:00,
2013-06-01 00:40:00,63.9,61.8,29.72,South,180,0.0,0.0,93,0.00,,,0.00,VWS V14.00,2013-06-01 05:40:00,
2013-06-01 00:45:00,63.7,61.6,29.72,South,180,0.0,0.0,93,0.00,,,0.00,VWS V14.00,2013-06-01 05:45:00,
2013-06-01 00:50:00,63.6,61.5,29.71,South,180,0.0,0.0,93,0.00,,,0.00,VWS V14.00,2013-06-01 05:50:00,
2013-06-01 00:55:00,63.5,61.4,29.70,South,180,0.0,0.0,93,0.00,,,0.00,VWS V14.00,2013-06-01 05:55:00,
2013-06-01 01:00:00,63.3,61.2,29.70,South,180,0.0,0.0,93,0.00,,,0.00,VWS V14.00,2013-06-01 06:00:00,
2013-06-01 01:05:00,63.2,61.2,29.71,South,180,0.0,0.0,93,0.00,,,0.00,VWS V14.00,2013-06-01 06:05:00,
2013-06-01 01:10:00,63.0,61.0,29.70,South,180,0.0,0.0,93,0.00,,,0.00,VWS V14.00,2013-06-01 06:10:00,
2013-06-01 01:15:00,62.8,60.8,29.70,South,180,0.0,0.0,93,0.00,,,0.00,VWS V14.00,2013-06-01 06:15:00,
2013-06-01 01:20:00,62.7,60.7,29.70,South,180,0.0,0.0,93,0.00,,,0.00,VWS V14.00,2013-06-01 06:20:00,
2013-06-01 01:25:00,62.5,60.5,29.69,South,180,0.0,2.0,93,0.00,,,0.00,VWS V14.00,2013-06-01 06:25:00,
2013-06-01 01:30:00,62.6,60.8,29.69,South,180,1.0,3.0,94,0.00,,,0.00,VWS V14.00,2013-06-01 06:30:00,
2013-06-01 01:35:00,62.6,60.8,29.69,North,0,0.0,3.0,94,0.00,,,0.00,VWS V14.00,2013-06-01 06:35:00,
2013-06-01 01:40:00,62.5,60.8,29.69,North,0,0.0,0.0,94,0.00,,,0.00,VWS V14.00,2013-06-01 06:40:00,
2013-06-01 01:45:00,62.3,60.6,29.70,North,0,0.0,0.0,94,0.00,,,0.00,VWS V14.00,2013-06-01 06:45:00,
2013-06-01 01:50:00,62.2,60.2,29.70,NNW,338,0.0,1.0,93,0.00,,,0.00,VWS V14.00,2013-06-01 06:50:00,
2013-06-01 01:55:00,62.0,60.3,29.69,NNW,338,0.0,0.0,94,0.00,,,0.00,VWS V14.00,2013-06-01 06:55:00,
2013-06-01 02:00:00,62.0,60.3,29.69,NNW,338,0.0,0.0,94,0.00,,,0.00,VWS V14.00,2013-06-01 07:00:00,
2013-06-01 02:05:00,61.9,60.2,29.68,NNW,338,0.0,0.0,94,0.00,,,0.00,VWS V14.00,2013-06-01 07:05:00,
2013-06-01 02:10:00,61.7,60.0,29.68,NNW,338,0.0,0.0,94,0.00,,,0.00,VWS V14.00,2013-06-01 07:10:00,
2013-06-01 02:15:00,61.6,59.9,29.69,South,180,4.0,13.0,94,0.00,,,0.00,VWS V14.00,2013-06-01 07:15:00,
2013-06-01 02:20:00,61.7,60.0,29.69,SSW,202,0.0,12.0,94,0.00,,,0.00,VWS V14.00,2013-06-01 07:20:00,
2013-06-01 02:25:00,61.7,60.0,29.68,SSW,202,0.0,0.0,94,0.00,,,0.00,VWS V14.00,2013-06-01 07:25:00,
2013-06-01 02:30:00,61.7,60.0,29.67,SSW,202,0.0,0.0,94,0.00,,,0.00,VWS V14.00,2013-06-01 07:30:00,
2013-06-01 02:35:00,61.5,59.8,29.67,SSW,202,0.0,0.0,94,0.00,,,0.00,VWS V14.00,2013-06-01 07:35:00,
2013-06-01 02:40:00,61.4,59.7,29.67,SSW,202,0.0,0.0,94,0.00,,,0.00,VWS V14.00,2013-06-01 07:40:00,
2013-06-01 02:45:00,61.4,59.7,29.67,SSW,202,2.0,3.0,94,0.00,,,0.00,VWS V14.00,2013-06-01 07:45:00,
2013-06-01 02:50:00,61.4,60.0,29.67,SSW,202,2.0,5.0,95,0.00,,,0.00,VWS V14.00,2013-06-01 07:50:00,
2013-06-01 02:55:00,61.1,59.4,29.66,SSE,158,5.0,8.0,94,0.00,,,0.00,VWS V14.00,2013-06-01 07:55:00,
2013-06-01 03:00:00,61.2,59.8,29.68,WNW,292,2.0,5.0,95,0.00,,,0.00,VWS V14.00,2013-06-01 08:00:00,
2013-06-01 03:05:00,61.3,59.9,29.67,WNW,292,0.0,5.0,95,0.00,,,0.00,VWS V14.00,2013-06-01 08:05:00,
2013-06-01 03:10:00,61.3,59.9,29.67,WNW,292,0.0,0.0,95,0.00,,,0.00,VWS V14.00,2013-06-01 08:10:00,
2013-06-01 03:15:00,61.2,59.8,29.68,WNW,292,0.0,0.0,95,0.00,,,0.00,VWS V14.00,2013-06-01 08:15:00,
2013-06-01 03:20:00,61.3,59.9,29.68,WNW,292,0.0,1.0,95,0.00,,,0.00,VWS V14.00,2013-06-01 08:20:00,
2013-06-01 03:25:00,61.4,60.0,29.67,SE,135,2.0,5.0,95,0.00,,,0.00,VWS V14.00,2013-06-01 08:25:00,
2013-06-01 03:30:00,61.2,59.8,29.67,SSE,158,3.0,5.0,95,0.00,,,0.00,VWS V14.00,2013-06-01 08:30:00,
2013-06-01 03:35:00,61.3,59.9,29.67,SSE,158,0.0,4.0,95,0.00,,,0.00,VWS V14.00,2013-06-01 08:35:00,
2013-06-01 03:40:00,61.2,59.8,29.68,SSE,158,2.0,4.0,95,0.00,,,0.00,VWS V14.00,2013-06-01 08:40:00,
2013-06-01 03:45:00,61.3,59.9,29.68,SSE,158,0.0,4.0,95,0.00,,,0.00,VWS V14.00,2013-06-01 08:45:00,
2013-06-01 03:50:00,61.3,59.9,29.68,SSE,158,4.0,7.0,95,0.00,,,0.00,VWS V14.00,2013-06-01 08:50:00,
2013-06-01 03:55:00,61.6,60.2,29.68,SSE,158,4.0,9.0,95,0.00,,,0.00,VWS V14.00,2013-06-01 08:55:00,
2013-06-01 04:00:00,61.8,60.4,29.68,SSW,202,2.0,7.0,95,0.00,,,0.00,VWS V14.00,2013-06-01 09:00:00,
2013-06-01 04:05:00,61.8,60.4,29.69,SSW,202,0.0,3.0,95,0.00,,,0.00,VWS V14.00,2013-06-01 09:05:00,
2013-06-01 04:10:00,61.8,60.4,29.70,SSW,202,1.0,4.0,95,0.00,,,0.00,VWS V14.00,2013-06-01 09:10:00,
2013-06-01 04:15:00,61.8,60.4,29.71,SW,225,0.0,4.0,95,0.00,,,0.00,VWS V14.00,2013-06-01 09:15:00,
2013-06-01 04:20:00,61.7,60.3,29.70,West,270,1.0,5.0,95,0.00,,,0.00,VWS V14.00,2013-06-01 09:20:00,
2013-06-01 04:25:00,61.7,60.3,29.69,WSW,248,1.0,3.0,95,0.00,,,0.00,VWS V14.00,2013-06-01 09:25:00,
2013-06-01 04:30:00,61.7,60.3,29.68,WSW,248,0.0,0.0,95,0.00,,,0.00,VWS V14.00,2013-06-01 09:30:00,
2013-06-01 04:35:00,61.6,60.2,29.68,SW,225,0.0,2.0,95,0.00,,,0.00,VWS V14.00,2013-06-01 09:35:00,
2013-06-01 04:40:00,61.6,60.2,29.69,WSW,248,0.0,3.0,95,0.00,,,0.00,VWS V14.00,2013-06-01 09:40:00,
2013-06-01 04:45:00,61.7,60.3,29.70,West,270,2.0,6.0,95,0.00,,,0.00,VWS V14.00,2013-06-01 09:45:00,
2013-06-01 04:50:00,61.7,60.3,29.72,West,270,4.0,9.0,95,0.00,,,0.00,VWS V14.00,2013-06-01 09:50:00,
2013-06-01 04:55:00,61.9,60.5,29.71,WSW,248,3.0,10.0,95,0.00,,,0.00,VWS V14.00,2013-06-01 09:55:00,
2013-06-01 05:00:00,62.0,60.6,29.72,WSW,248,3.0,9.0,95,0.00,,,0.00,VWS V14.00,2013-06-01 10:00:00,
2013-06-01 05:05:00,62.2,60.8,29.71,SW,225,4.0,11.0,95,0.00,,,0.00,VWS V14.00,2013-06-01 10:05:00,
2013-06-01 05:10:00,62.5,61.0,29.71,SW,225,4.0,9.0,95,0.00,,,0.00,VWS V14.00,2013-06-01 10:10:00,
2013-06-01 05:15:00,62.6,61.2,29.69,SW,225,3.0,6.0,95,0.00,,,0.00,VWS V14.00,2013-06-01 10:15:00,
2013-06-01 05:20:00,62.6,61.2,29.68,SW,225,0.0,0.0,95,0.00,,,0.00,VWS V14.00,2013-06-01 10:20:00,
2013-06-01 05:25:00,62.6,61.2,29.68,WSW,248,0.0,1.0,95,0.00,,,0.00,VWS V14.00,2013-06-01 10:25:00,
2013-06-01 05:30:00,62.6,61.2,29.68,WSW,248,0.0,0.0,95,0.00,,,0.00,VWS V14.00,2013-06-01 10:30:00,
2013-06-01 05:35:00,62.5,61.0,29.69,WSW,248,0.0,0.0,95,0.00,,,0.00,VWS V14.00,2013-06-01 10:35:00,
2013-06-01 05:40:00,62.5,61.0,29.69,WSW,248,0.0,0.0,95,0.00,,,0.00,VWS V14.00,2013-06-01 10:40:00,
2013-06-01 05:45:00,62.4,61.0,29.69,West,270,0.0,3.0,95,0.00,,,0.00,VWS V14.00,2013-06-01 10:45:00,
2013-06-01 05:50:00,62.3,60.8,29.69,WSW,248,2.0,5.0,95,0.00,,,0.00,VWS V14.00,2013-06-01 10:50:00,
2013-06-01 05:55:00,62.3,60.8,29.69,WSW,248,2.0,5.0,95,0.00,,,0.00,VWS V14.00,2013-06-01 10:55:00,
2013-06-01 06:00:00,62.4,61.0,29.70,SW,225,3.0,5.0,95,0.00,,,0.00,VWS V14.00,2013-06-01 11:00:00,
2013-06-01 06:05:00,62.6,61.2,29.71,SW,225,3.0,8.0,95,0.00,,,0.00,VWS V14.00,2013-06-01 11:05:00,
2013-06-01 06:10:00,62.8,61.3,29.71,SW,225,3.0,10.0,95,0.00,,,0.00,VWS V14.00,2013-06-01 11:10:00,
2013-06-01 06:15:00,62.8,61.7,29.71,WSW,248,1.0,6.0,96,0.00,,,0.00,VWS V14.00,2013-06-01 11:15:00,
2013-06-01 06:20:00,62.8,61.3,29.71,WSW,248,0.0,0.0,95,0.00,,,0.00,VWS V14.00,2013-06-01 11:20:00,
2013-06-01 06:25:00,62.7,61.2,29.71,South,180,2.0,6.0,95,0.00,,,0.00,VWS V14.00,2013-06-01 11:25:00,
2013-06-01 06:30:00,63.1,61.9,29.71,South,180,4.0,5.0,96,0.00,,,0.00,VWS V14.00,2013-06-01 11:30:00,
2013-06-01 06:35:00,63.1,61.9,29.70,SW,225,1.0,5.0,96,0.00,,,0.00,VWS V14.00,2013-06-01 11:35:00,
2013-06-01 06:40:00,63.2,62.0,29.70,WSW,248,1.0,4.0,96,0.00,,,0.00,VWS V14.00,2013-06-01 11:40:00,
2013-06-01 06:45:00,63.2,62.0,29.70,WSW,248,0.0,0.0,96,0.00,,,0.00,VWS V14.00,2013-06-01 11:45:00,
2013-06-01 06:50:00,63.2,61.8,29.71,WSW,248,0.0,0.0,95,0.00,,,0.00,VWS V14.00,2013-06-01 11:50:00,
2013-06-01 06:55:00,63.2,61.8,29.72,WSW,248,0.0,0.0,95,0.00,,,0.00,VWS V14.00,2013-06-01 11:55:00,
2013-06-01 07:00:00,63.1,61.9,29.71,WSW,248,2.0,3.0,96,0.00,,,0.00,VWS V14.00,2013-06-01 12:00:00,
2013-06-01 07:05:00,63.0,61.5,29.72,SW,225,2.0,4.0,95,0.00,,,0.00,VWS V14.00,2013-06-01 12:05:00,
2013-06-01 07:10:00,63.1,61.7,29.72,SSW,202,4.0,6.0,95,0.00,,,0.00,VWS V14.00,2013-06-01 12:10:00,
2013-06-01 07:15:00,63.4,62.0,29.73,SSW,202,3.0,5.0,95,0.00,,,0.00,VWS V14.00,2013-06-01 12:15:00,
2013-06-01 07:20:00,63.5,62.3,29.74,SW,225,2.0,5.0,96,0.00,,,0.00,VWS V14.00,2013-06-01 12:20:00,
2013-06-01 07:25:00,63.5,62.3,29.74,SW,225,2.0,4.0,96,0.00,,,0.00,VWS V14.00,2013-06-01 12:25:00,
2013-06-01 07:30:00,63.6,62.4,29.75,SW,225,2.0,4.0,96,0.00,,,0.00,VWS V14.00,2013-06-01 12:30:00,
2013-06-01 07:35:00,63.5,62.3,29.75,SW,225,3.0,4.0,96,0.00,,,0.00,VWS V14.00,2013-06-01 12:35:00,
2013-06-01 07:40:00,63.5,62.3,29.75,SW,225,1.0,4.0,96,0.00,,,0.00,VWS V14.00,2013-06-01 12:40:00,
2013-06-01 07:45:00,63.6,62.4,29.76,WSW,248,1.0,4.0,96,0.00,,,0.00,VWS V14.00,2013-06-01 12:45:00,
2013-06-01 07:50:00,63.6,62.4,29.76,WNW,292,2.0,5.0,96,0.00,,,0.00,VWS V14.00,2013-06-01 12:50:00,
2013-06-01 08:02:00,63.6,62.4,29.76,WNW,292,4.0,9.0,96,0.00,,,0.00,VWS V14.00,2013-06-01 13:02:00,
2013-06-01 08:07:00,62.8,61.0,29.76,WNW,290,4.0,5.0,94,0.00,,,0.00,VWS V14.00,2013-06-01 13:07:00,
2013-06-01 08:12:00,62.3,60.2,29.76,WNW,303,4.0,5.0,93,0.00,,,0.00,VWS V14.00,2013-06-01 13:12:00,
2013-06-01 08:17:00,62.0,60.3,29.76,WNW,296,3.0,3.0,94,0.00,,,0.00,VWS V14.00,2013-06-01 13:17:00,
2013-06-01 08:22:00,61.9,60.2,29.76,WNW,303,4.0,7.0,94,0.00,,,0.00,VWS V14.00,2013-06-01 13:22:00,
2013-06-01 08:27:00,61.8,60.1,29.76,WNW,297,6.0,8.0,94,0.00,,,0.00,VWS V14.00,2013-06-01 13:27:00,
2013-06-01 08:32:00,61.7,60.0,29.77,West,272,2.0,7.0,94,0.00,,,0.00,VWS V14.00,2013-06-01 13:32:00,
2013-06-01 08:37:00,61.7,59.7,29.77,WNW,299,5.0,5.0,93,0.00,,,0.00,VWS V14.00,2013-06-01 13:37:00,
2013-06-01 08:42:00,61.7,60.0,29.77,WNW,301,0.0,5.0,94,0.00,,,0.00,VWS V14.00,2013-06-01 13:42:00,
2013-06-01 08:47:00,61.7,59.7,29.77,WNW,297,0.0,6.0,93,0.00,,,0.00,VWS V14.00,2013-06-01 13:47:00,
2013-06-01 08:52:00,61.7,59.7,29.78,WNW,295,0.0,5.0,93,0.00,,,0.00,VWS V14.00,2013-06-01 13:52:00,
2013-06-01 08:57:00,61.8,59.8,29.78,WNW,287,5.0,7.0,93,0.00,,,0.00,VWS V14.00,2013-06-01 13:57:00,
2013-06-01 09:02:00,61.9,59.2,29.78,WNW,295,0.0,6.0,91,0.00,,,0.00,VWS V14.00,2013-06-01 14:02:00,
2013-06-01 09:07:00,61.9,58.9,29.78,WNW,288,0.0,5.0,90,0.00,,,0.00,VWS V14.00,2013-06-01 14:07:00,
2013-06-01 09:12:00,62.0,58.7,29.77,WNW,289,0.0,1.0,89,0.00,,,0.00,VWS V14.00,2013-06-01 14:12:00,
2013-06-01 09:17:00,62.2,58.9,29.77,WSW,255,2.0,7.0,89,0.00,,,0.00,VWS V14.00,2013-06-01 14:17:00,
2013-06-01 09:22:00,62.5,58.6,29.77,West,281,0.0,3.0,87,0.00,,,0.00,VWS V14.00,2013-06-01 14:22:00,
2013-06-01 09:27:00,62.7,58.1,29.77,West,281,0.0,0.0,85,0.00,,,0.00,VWS V14.00,2013-06-01 14:27:00,
2013-06-01 09:32:00,63.2,58.6,29.77,WSW,246,0.0,3.0,85,0.00,,,0.00,VWS V14.00,2013-06-01 14:32:00,
2013-06-01 09:37:00,63.9,59.6,29.78,West,280,0.0,6.0,86,0.00,,,0.00,VWS V14.00,2013-06-01 14:37:00,
2013-06-01 09:42:00,64.4,59.1,29.78,SW,220,2.0,6.0,83,0.00,,,0.00,VWS V14.00,2013-06-01 14:42:00,
2013-06-01 09:47:00,65.0,58.7,29.78,West,259,7.0,8.0,80,0.00,,,0.00,VWS V14.00,2013-06-01 14:47:00,
2013-06-01 09:52:00,65.4,59.4,29.78,SW,220,3.0,6.0,81,0.00,,,0.00,VWS V14.00,2013-06-01 14:52:00,
2013-06-01 09:57:00,66.0,60.7,29.77,WSW,239,2.0,11.0,83,0.00,,,0.00,VWS V14.00,2013-06-01 14:57:00,
2013-06-01 10:02:00,66.2,58.8,29.77,West,266,2.0,9.0,77,0.00,,,0.00,VWS V14.00,2013-06-01 15:02:00,
2013-06-01 10:07:00,66.6,60.2,29.78,NW,309,5.0,9.0,80,0.00,,,0.00,VWS V14.00,2013-06-01 15:07:00,
2013-06-01 10:12:00,67.1,59.7,29.77,West,278,2.0,4.0,77,0.00,,,0.00,VWS V14.00,2013-06-01 15:12:00,
2013-06-01 10:17:00,67.7,60.6,29.77,NW,306,4.0,7.0,78,0.00,,,0.00,VWS V14.00,2013-06-01 15:17:00,
2013-06-01 10:22:00,68.1,58.7,29.77,SW,236,5.0,7.0,72,0.00,,,0.00,VWS V14.00,2013-06-01 15:22:00,
2013-06-01 10:27:00,68.6,62.5,29.77,WNW,294,0.0,7.0,81,0.00,,,0.00,VWS V14.00,2013-06-01 15:27:00,
2013-06-01 10:32:00,69.2,61.3,29.76,West,279,2.0,9.0,76,0.00,,,0.00,VWS V14.00,2013-06-01 15:32:00,
2013-06-01 10:37:00,69.6,61.0,29.77,West,264,8.0,11.0,74,0.00,,,0.00,VWS V14.00,2013-06-01 15:37:00,
2013-06-01 10:42:00,70.0,61.0,29.77,WNW,282,7.0,15.0,73,0.00,,,0.00,VWS V14.00,2013-06-01 15:42:00,
2013-06-01 10:47:00,70.4,62.1,29.77,NW,314,2.0,10.0,75,0.00,,,0.00,VWS V14.00,2013-06-01 15:47:00,
2013-06-01 10:52:00,70.7,60.8,29.78,WNW,282,7.0,13.0,71,0.00,,,0.00,VWS V14.00,2013-06-01 15:52:00,
2013-06-01 10:57:00,70.7,61.2,29.78,WNW,296,3.0,3.0,72,0.00,,,0.00,VWS V14.00,2013-06-01 15:57:00,
2013-06-01 11:02:00,70.6,60.3,29.78,NNW,333,4.0,9.0,70,0.00,,,0.00,VWS V14.00,2013-06-01 16:02:00,
2013-06-01 11:07:00,70.8,60.9,29.78,WNW,282,5.0,11.0,71,0.00,,,0.00,VWS V14.00,2013-06-01 16:07:00,
2013-06-01 11:12:00,71.0,59.9,29.78,West,280,6.0,8.0,68,0.00,,,0.00,VWS V14.00,2013-06-01 16:12:00,
2013-06-01 11:17:00,71.3,61.0,29.78,WNW,299,1.0,13.0,70,0.00,,,0.00,VWS V14.00,2013-06-01 16:17:00,
2013-06-01 11:22:00,71.6,60.5,29.78,NNW,328,3.0,10.0,68,0.00,,,0.00,VWS V14.00,2013-06-01 16:22:00,
2013-06-01 11:27:00,71.8,61.1,29.78,WNW,289,8.0,9.0,69,0.00,,,0.00,VWS V14.00,2013-06-01 16:27:00,
2013-06-01 11:32:00,72.0,59.6,29.78,West,264,6.0,13.0,65,0.00,,,0.00,VWS V14.00,2013-06-01 16:32:00,
2013-06-01 11:37:00,72.2,58.9,29.78,West,277,6.0,12.0,63,0.00,,,0.00,VWS V14.00,2013-06-01 16:37:00,
2013-06-01 11:42:00,72.5,61.3,29.78,WNW,287,5.0,12.0,68,0.00,,,0.00,VWS V14.00,2013-06-01 16:42:00,
2013-06-01 11:47:00,72.9,61.3,29.78,WNW,285,0.0,16.0,67,0.00,,,0.00,VWS V14.00,2013-06-01 16:47:00,
2013-06-01 11:52:00,73.0,61.4,29.79,North,358,0.0,8.0,67,0.00,,,0.00,VWS V14.00,2013-06-01 16:52:00,
2013-06-01 11:57:00,73.5,62.3,29.79,WNW,285,7.0,7.0,68,0.00,,,0.00,VWS V14.00,2013-06-01 16:57:00,
2013-06-01 12:02:00,73.9,60.5,29.79,WSW,243,3.0,11.0,63,0.00,,,0.00,VWS V14.00,2013-06-01 17:02:00,
2013-06-01 12:07:00,74.3,62.6,29.80,West,277,2.0,18.0,67,0.00,,,0.00,VWS V14.00,2013-06-01 17:07:00,
2013-06-01 12:12:00,74.6,62.1,29.79,West,276,4.0,13.0,65,0.00,,,0.00,VWS V14.00,2013-06-01 17:12:00,
2013-06-01 12:17:00,74.9,62.8,29.80,West,272,7.0,16.0,66,0.00,,,0.00,VWS V14.00,2013-06-01 17:17:00,
2013-06-01 12:22:00,75.0,62.0,29.80,West,264,11.0,11.0,64,0.00,,,0.00,VWS V14.00,2013-06-01 17:22:00,
2013-06-01 12:27:00,74.5,60.2,29.80,WNW,297,6.0,19.0,61,0.00,,,0.00,VWS V14.00,2013-06-01 17:27:00,
2013-06-01 12:32:00,73.9,59.6,29.79,WSW,247,3.0,13.0,61,0.00,,,0.00,VWS V14.00,2013-06-01 17:32:00,
2013-06-01 12:37:00,73.5,60.6,29.79,West,273,6.0,11.0,64,0.00,,,0.00,VWS V14.00,2013-06-01 17:37:00,
2013-06-01 12:42:00,73.4,60.0,29.79,WNW,283,9.0,15.0,63,0.00,,,0.00,VWS V14.00,2013-06-01 17:42:00,
2013-06-01 12:46:00,73.7,61.7,29.79,WSW,239,2.0,8.0,66,0.00,,,0.00,VWS V14.00,2013-06-01 17:46:00,
2013-06-01 12:51:00,74.3,62.6,29.80,NW,326,14.0,20.0,67,0.00,,,0.00,VWS V14.00,2013-06-01 17:51:00,
2013-06-01 12:56:00,74.7,60.8,29.80,NW,316,3.0,21.0,62,0.00,,,0.00,VWS V14.00,2013-06-01 17:56:00,
2013-06-01 13:01:00,75.0,61.6,29.80,WNW,301,15.0,19.0,63,0.00,,,0.00,VWS V14.00,2013-06-01 18:01:00,
2013-06-01 13:06:00,74.9,62.8,29.79,WSW,250,5.0,14.0,66,0.00,,,0.00,VWS V14.00,2013-06-01 18:06:00,
2013-06-01 13:11:00,75.0,61.1,29.80,West,274,7.0,11.0,62,0.00,,,0.00,VWS V14.00,2013-06-01 18:11:00,
2013-06-01 13:16:00,75.1,61.2,29.79,West,268,0.0,11.0,62,0.00,,,0.00,VWS V14.00,2013-06-01 18:16:00,
2013-06-01 13:21:00,74.9,61.0,29.79,West,278,12.0,12.0,62,0.00,,,0.00,VWS V14.00,2013-06-01 18:21:00,
2013-06-01 13:26:00,75.3,60.0,29.79,WSW,247,3.0,17.0,59,0.00,,,0.00,VWS V14.00,2013-06-01 18:26:00,
2013-06-01 13:31:00,75.7,61.3,29.79,WSW,249,17.0,18.0,61,0.00,,,0.00,VWS V14.00,2013-06-01 18:31:00,
2013-06-01 13:36:00,75.8,60.5,29.80,West,270,2.0,15.0,59,0.00,,,0.00,VWS V14.00,2013-06-01 18:36:00,
2013-06-01 13:41:00,76.0,61.1,29.80,West,278,7.0,10.0,60,0.00,,,0.00,VWS V14.00,2013-06-01 18:41:00,
2013-06-01 13:46:00,75.8,60.0,29.80,WNW,299,1.0,11.0,58,0.00,,,0.00,VWS V14.00,2013-06-01 18:46:00,
2013-06-01 13:51:00,75.5,62.9,29.80,WNW,301,12.0,15.0,65,0.00,,,0.00,VWS V14.00,2013-06-01 18:51:00,
2013-06-01 13:56:00,75.3,62.3,29.80,NW,304,15.0,18.0,64,0.00,,,0.00,VWS V14.00,2013-06-01 18:56:00,
2013-06-01 14:01:00,75.5,60.7,29.80,West,274,1.0,13.0,60,0.00,,,0.00,VWS V14.00,2013-06-01 19:01:00,
2013-06-01 14:06:00,76.0,60.2,29.81,WSW,243,0.0,15.0,58,0.00,,,0.00,VWS V14.00,2013-06-01 19:06:00,
2013-06-01 14:11:00,76.2,62.2,29.81,WNW,286,7.0,23.0,62,0.00,,,0.00,VWS V14.00,2013-06-01 19:11:00,
2013-06-01 14:16:00,76.5,60.2,29.81,WNW,293,5.0,16.0,57,0.00,,,0.00,VWS V14.00,2013-06-01 19:16:00,
2013-06-01 14:21:00,76.7,62.2,29.81,NW,307,7.0,13.0,61,0.00,,,0.00,VWS V14.00,2013-06-01 19:21:00,
2013-06-01 14:26:00,76.4,61.5,29.81,WNW,297,5.0,19.0,60,0.00,,,0.00,VWS V14.00,2013-06-01 19:26:00,
2013-06-01 14:31:00,75.8,61.4,29.81,NNW,333,10.0,15.0,61,0.00,,,0.00,VWS V14.00,2013-06-01 19:31:00,
2013-06-01 14:36:00,75.1,61.2,29.81,West,265,4.0,11.0,62,0.00,,,0.00,VWS V14.00,2013-06-01 19:36:00,
2013-06-01 14:41:00,74.5,62.0,29.81,WSW,245,5.0,16.0,65,0.00,,,0.00,VWS V14.00,2013-06-01 19:41:00,
2013-06-01 14:46:00,74.0,61.5,29.81,West,260,10.0,17.0,65,0.00,,,0.00,VWS V14.00,2013-06-01 19:46:00,
2013-06-01 14:51:00,73.6,61.5,29.81,West,265,2.0,19.0,66,0.00,,,0.00,VWS V14.00,2013-06-01 19:51:00,
2013-06-01 14:56:00,73.1,59.3,29.81,WNW,293,0.0,7.0,62,0.00,,,0.00,VWS V14.00,2013-06-01 19:56:00,
2013-06-01 15:01:00,72.5,60.1,29.82,WNW,303,10.0,12.0,65,0.00,,,0.00,VWS V14.00,2013-06-01 20:01:00,
2013-06-01 15:06:00,72.0,60.5,29.82,NW,318,11.0,13.0,67,0.00,,,0.00,VWS V14.00,2013-06-01 20:06:00,
2013-06-01 15:11:00,71.4,60.3,29.82,NW,307,1.0,13.0,68,0.00,,,0.00,VWS V14.00,2013-06-01 20:11:00,
2013-06-01 15:16:00,70.9,60.6,29.83,West,281,7.0,7.0,70,0.00,,,0.00,VWS V14.00,2013-06-01 20:16:00,
2013-06-01 15:21:00,70.5,60.3,29.83,NW,313,0.0,10.0,70,0.00,,,0.00,VWS V14.00,2013-06-01 20:21:00,
2013-06-01 15:26:00,70.4,61.0,29.83,WNW,293,0.0,12.0,72,0.00,,,0.00,VWS V14.00,2013-06-01 20:26:00,
2013-06-01 15:31:00,70.3,60.9,29.83,West,263,13.0,16.0,72,0.00,,,0.00,VWS V14.00,2013-06-01 20:31:00,
2013-06-01 15:36:00,70.1,59.9,29.83,West,274,8.0,16.0,70,0.00,,,0.00,VWS V14.00,2013-06-01 20:36:00,
2013-06-01 15:41:00,69.8,60.4,29.83,NW,311,18.0,19.0,72,0.00,,,0.00,VWS V14.00,2013-06-01 20:41:00,
2013-06-01 15:46:00,69.6,60.2,29.83,NW,305,10.0,12.0,72,0.00,,,0.00,VWS V14.00,2013-06-01 20:46:00,
2013-06-01 15:51:00,69.5,60.9,29.83,WNW,289,0.0,11.0,74,0.00,,,0.00,VWS V14.00,2013-06-01 20:51:00,
2013-06-01 15:56:00,69.4,61.5,29.83,West,277,6.0,12.0,76,0.00,,,0.00,VWS V14.00,2013-06-01 20:56:00,
2013-06-01 16:01:00,69.5,62.0,29.83,West,269,3.0,10.0,77,0.00,,,0.00,VWS V14.00,2013-06-01 21:01:00,
2013-06-01 16:06:00,69.8,61.2,29.83,WNW,283,5.0,15.0,74,0.00,,,0.00,VWS V14.00,2013-06-01 21:06:00,
2013-06-01 16:11:00,70.0,61.0,29.83,WNW,287,4.0,13.0,73,0.00,,,0.00,VWS V14.00,2013-06-01 21:11:00,
2013-06-01 16:16:00,70.3,62.4,29.84,West,266,7.0,14.0,76,0.00,,,0.00,VWS V14.00,2013-06-01 21:16:00,
2013-06-01 16:21:00,70.4,61.3,29.84,WNW,285,7.0,19.0,73,0.00,,,0.00,VWS V14.00,2013-06-01 21:21:00,
2013-06-01 16:26:00,70.4,60.6,29.84,NW,312,3.0,18.0,71,0.00,,,0.00,VWS V14.00,2013-06-01 21:26:00,
2013-06-01 16:31:00,70.3,60.5,29.84,WNW,295,6.0,21.0,71,0.00,,,0.00,VWS V14.00,2013-06-01 21:31:00,
2013-06-01 16:36:00,70.2,61.2,29.84,West,270,6.0,9.0,73,0.00,,,0.00,VWS V14.00,2013-06-01 21:36:00,
2013-06-01 16:41:00,70.1,61.4,29.84,West,279,3.0,7.0,74,0.00,,,0.00,VWS V14.00,2013-06-01 21:41:00,
2013-06-01 16:46:00,70.1,61.8,29.84,NW,318,3.0,14.0,75,0.00,,,0.00,VWS V14.00,2013-06-01 21:46:00,
2013-06-01 16:51:00,70.1,61.4,29.84,WNW,299,12.0,12.0,74,0.00,,,0.00,VWS V14.00,2013-06-01 21:51:00,
2013-06-01 16:56:00,70.2,62.3,29.84,WSW,245,3.0,12.0,76,0.00,,,0.00,VWS V14.00,2013-06-01 21:56:00,
2013-06-01 17:01:00,70.4,61.7,29.85,WNW,302,5.0,14.0,74,0.00,,,0.00,VWS V14.00,2013-06-01 22:01:00,
2013-06-01 17:06:00,70.3,60.5,29.85,West,264,1.0,14.0,71,0.00,,,0.00,VWS V14.00,2013-06-01 22:06:00,
2013-06-01 17:11:00,70.3,61.6,29.85,West,274,7.0,11.0,74,0.00,,,0.00,VWS V14.00,2013-06-01 22:11:00,
2013-06-01 17:16:00,70.2,61.5,29.85,WSW,239,5.0,11.0,74,0.00,,,0.00,VWS V14.00,2013-06-01 22:16:00,
2013-06-01 17:21:00,70.0,61.3,29.85,WNW,288,7.0,14.0,74,0.00,,,0.00,VWS V14.00,2013-06-01 22:21:00,
2013-06-01 17:26:00,69.7,61.0,29.85,West,262,2.0,15.0,74,0.00,,,0.00,VWS V14.00,2013-06-01 22:26:00,
2013-06-01 17:31:00,69.5,61.2,29.85,WSW,252,0.0,18.0,75,0.00,,,0.00,VWS V14.00,2013-06-01 22:31:00,
2013-06-01 17:36:00,69.2,60.6,29.85,WNW,297,12.0,16.0,74,0.00,,,0.00,VWS V14.00,2013-06-01 22:36:00,
2013-06-01 17:41:00,69.1,60.1,29.85,NW,309,5.0,12.0,73,0.00,,,0.00,VWS V14.00,2013-06-01 22:41:00,
2013-06-01 17:46:00,69.1,60.8,29.85,West,274,0.0,3.0,75,0.00,,,0.00,VWS V14.00,2013-06-01 22:46:00,
2013-06-01 17:51:00,69.1,61.2,29.85,West,266,11.0,11.0,76,0.00,,,0.00,VWS V14.00,2013-06-01 22:51:00,
2013-06-01 17:56:00,69.2,61.0,29.85,NW,310,5.0,14.0,75,0.00,,,0.00,VWS V14.00,2013-06-01 22:56:00,
2013-06-01 18:01:00,69.2,61.0,29.85,West,270,7.0,12.0,75,0.00,,,0.00,VWS V14.00,2013-06-01 23:01:00,
2013-06-01 18:06:00,69.2,61.3,29.85,West,281,4.0,11.0,76,0.00,,,0.00,VWS V14.00,2013-06-01 23:06:00,
2013-06-01 18:11:00,69.0,60.4,29.85,WNW,290,4.0,9.0,74,0.00,,,0.00,VWS V14.00,2013-06-01 23:11:00,
2013-06-01 18:16:00,68.8,60.6,29.85,West,272,0.0,11.0,75,0.00,,,0.00,VWS V14.00,2013-06-01 23:16:00,
2013-06-01 18:21:00,68.5,60.3,29.85,WNW,284,12.0,12.0,75,0.00,,,0.00,VWS V14.00,2013-06-01 23:21:00,
2013-06-01 18:26:00,68.3,60.5,29.85,West,280,0.0,9.0,76,0.00,,,0.00,VWS V14.00,2013-06-01 23:26:00,
2013-06-01 18:31:00,68.3,60.5,29.86,NW,320,0.0,8.0,76,0.00,,,0.00,VWS V14.00,2013-06-01 23:31:00,
2013-06-01 18:36:00,68.3,60.1,29.85,WNW,289,2.0,6.0,75,0.00,,,0.00,VWS V14.00,2013-06-01 23:36:00,
2013-06-01 18:41:00,68.2,60.3,29.86,West,271,0.0,12.0,76,0.00,,,0.00,VWS V14.00,2013-06-01 23:41:00,
2013-06-01 18:46:00,68.0,60.2,29.86,West,277,1.0,11.0,76,0.00,,,0.00,VWS V14.00,2013-06-01 23:46:00,
2013-06-01 18:51:00,67.7,60.2,29.86,West,272,4.0,10.0,77,0.00,,,0.00,VWS V14.00,2013-06-01 23:51:00,
2013-06-01 18:56:00,67.5,60.4,29.86,West,271,2.0,6.0,78,0.00,,,0.00,VWS V14.00,2013-06-01 23:56:00,
2013-06-01 19:01:00,67.3,59.8,29.86,WNW,297,5.0,9.0,77,0.00,,,0.00,VWS V14.00,2013-06-02 00:01:00,
2013-06-01 19:06:00,67.2,59.8,29.86,WNW,289,12.0,15.0,77,0.00,,,0.00,VWS V14.00,2013-06-02 00:06:00,
2013-06-01 19:11:00,66.9,59.5,29.86,WSW,254,5.0,11.0,77,0.00,,,0.00,VWS V14.00,2013-06-02 00:11:00,
2013-06-01 19:16:00,66.7,58.5,29.86,WNW,285,10.0,17.0,75,0.00,,,0.00,VWS V14.00,2013-06-02 00:16:00,
2013-06-01 19:21:00,66.4,58.6,29.87,WNW,290,7.0,15.0,76,0.00,,,0.00,VWS V14.00,2013-06-02 00:21:00,
2013-06-01 19:26:00,66.3,58.9,29.87,West,278,4.0,7.0,77,0.00,,,0.00,VWS V14.00,2013-06-02 00:26:00,
2013-06-01 19:31:00,66.2,58.8,29.87,WNW,282,6.0,6.0,77,0.00,,,0.00,VWS V14.00,2013-06-02 00:31:00,
2013-06-01 19:36:00,66.1,59.4,29.87,WNW,289,8.0,11.0,79,0.00,,,0.00,VWS V14.00,2013-06-02 00:36:00,
2013-06-01 19:41:00,66.1,58.7,29.87,WNW,282,6.0,9.0,77,0.00,,,0.00,VWS V14.00,2013-06-02 00:41:00,
2013-06-01 19:46:00,66.0,58.2,29.88,WNW,302,7.0,9.0,76,0.00,,,0.00,VWS V14.00,2013-06-02 00:46:00,
2013-06-01 19:51:00,65.7,58.3,29.88,WNW,287,9.0,15.0,77,0.00,,,0.00,VWS V14.00,2013-06-02 00:51:00,
2013-06-01 19:56:00,65.5,58.5,29.88,NW,306,2.0,12.0,78,0.00,,,0.00,VWS V14.00,2013-06-02 00:56:00,
2013-06-01 20:01:00,65.2,57.8,29.88,NW,319,5.0,11.0,77,0.00,,,0.00,VWS V14.00,2013-06-02 01:01:00,
2013-06-01 20:06:00,64.9,57.9,29.88,WNW,287,8.0,8.0,78,0.00,,,0.00,VWS V14.00,2013-06-02 01:06:00,
2013-06-01 20:11:00,64.5,57.1,29.88,West,270,8.0,9.0,77,0.00,,,0.00,VWS V14.00,2013-06-02 01:11:00,
2013-06-01 20:16:00,64.3,57.0,29.88,WNW,298,12.0,13.0,77,0.00,,,0.00,VWS V14.00,2013-06-02 01:16:00,
2013-06-01 20:21:00,64.1,57.1,29.88,West,270,8.0,11.0,78,0.00,,,0.00,VWS V14.00,2013-06-02 01:21:00,
2013-06-01 20:26:00,63.9,56.6,29.88,WNW,288,10.0,11.0,77,0.00,,,0.00,VWS V14.00,2013-06-02 01:26:00,
2013-06-01 20:31:00,63.7,56.7,29.88,WNW,297,7.0,9.0,78,0.00,,,0.00,VWS V14.00,2013-06-02 01:31:00,
2013-06-01 20:36:00,63.5,56.9,29.88,WNW,301,4.0,10.0,79,0.00,,,0.00,VWS V14.00,2013-06-02 01:36:00,
2013-06-01 20:41:00,63.2,56.2,29.88,WNW,290,3.0,8.0,78,0.00,,,0.00,VWS V14.00,2013-06-02 01:41:00,
2013-06-01 20:46:00,63.0,56.4,29.89,WNW,287,3.0,6.0,79,0.00,,,0.00,VWS V14.00,2013-06-02 01:46:00,
2013-06-01 20:51:00,62.8,56.2,29.89,WNW,297,7.0,15.0,79,0.00,,,0.00,VWS V14.00,2013-06-02 01:51:00,
2013-06-01 20:56:00,62.6,56.0,29.89,WNW,284,3.0,10.0,79,0.00,,,0.00,VWS V14.00,2013-06-02 01:56:00,
2013-06-01 21:01:00,62.5,55.9,29.89,NW,309,6.0,10.0,79,0.00,,,0.00,VWS V14.00,2013-06-02 02:01:00,
2013-06-01 21:06:00,62.3,55.7,29.89,WNW,288,5.0,8.0,79,0.00,,,0.00,VWS V14.00,2013-06-02 02:06:00,
2013-06-01 21:11:00,62.1,55.5,29.89,WSW,246,9.0,9.0,79,0.00,,,0.00,VWS V14.00,2013-06-02 02:11:00,
2013-06-01 21:16:00,62.0,55.8,29.90,WNW,295,4.0,9.0,80,0.00,,,0.00,VWS V14.00,2013-06-02 02:16:00,
2013-06-01 21:21:00,61.8,55.6,29.90,WNW,295,1.0,9.0,80,0.00,,,0.00,VWS V14.00,2013-06-02 02:21:00,
2013-06-01 21:26:00,61.6,55.7,29.90,NW,307,4.0,8.0,81,0.00,,,0.00,VWS V14.00,2013-06-02 02:26:00,
2013-06-01 21:31:00,61.5,55.6,29.90,WNW,285,5.0,7.0,81,0.00,,,0.00,VWS V14.00,2013-06-02 02:31:00,
2013-06-01 21:36:00,61.4,55.5,29.90,West,279,7.0,7.0,81,0.00,,,0.00,VWS V14.00,2013-06-02 02:36:00,
2013-06-01 21:41:00,61.3,55.8,29.91,WNW,301,5.0,8.0,82,0.00,,,0.00,VWS V14.00,2013-06-02 02:41:00,
2013-06-01 21:46:00,61.2,55.7,29.91,WNW,283,6.0,6.0,82,0.00,,,0.00,VWS V14.00,2013-06-02 02:46:00,
2013-06-01 21:51:00,61.1,55.9,29.91,WNW,295,5.0,6.0,83,0.00,,,0.00,VWS V14.00,2013-06-02 02:51:00,
2013-06-01 21:56:00,61.1,55.9,29.91,West,268,4.0,7.0,83,0.00,,,0.00,VWS V14.00,2013-06-02 02:56:00,
2013-06-01 22:01:00,61.1,55.9,29.92,WSW,251,4.0,6.0,83,0.00,,,0.00,VWS V14.00,2013-06-02 03:01:00,
2013-06-01 22:06:00,61.1,55.9,29.92,WNW,297,2.0,5.0,83,0.00,,,0.00,VWS V14.00,2013-06-02 03:06:00,
2013-06-01 22:11:00,61.2,56.0,29.92,WNW,290,3.0,3.0,83,0.00,,,0.00,VWS V14.00,2013-06-02 03:11:00,
2013-06-01 22:16:00,61.2,56.0,29.92,WNW,282,4.0,5.0,83,0.00,,,0.00,VWS V14.00,2013-06-02 03:16:00,
2013-06-01 22:21:00,61.1,55.9,29.92,West,274,3.0,3.0,83,0.00,,,0.00,VWS V14.00,2013-06-02 03:21:00,
2013-06-01 22:26:00,61.0,55.5,29.92,West,275,0.0,0.0,82,0.00,,,0.00,VWS V14.00,2013-06-02 03:26:00,
2013-06-01 22:31:00,60.8,55.6,29.93,West,276,0.0,0.0,83,0.00,,,0.00,VWS V14.00,2013-06-02 03:31:00,
2013-06-01 22:36:00,60.4,55.5,29.93,West,276,0.0,0.0,84,0.00,,,0.00,VWS V14.00,2013-06-02 03:36:00,
2013-06-01 22:41:00,60.1,55.3,29.93,West,276,0.0,0.0,84,0.00,,,0.00,VWS V14.00,2013-06-02 03:41:00,
2013-06-01 22:46:00,59.8,55.0,29.93,West,276,0.0,0.0,84,0.00,,,0.00,VWS V14.00,2013-06-02 03:46:00,
2013-06-01 22:51:00,59.5,54.7,29.93,West,276,0.0,0.0,84,0.00,,,0.00,VWS V14.00,2013-06-02 03:51:00,
2013-06-01 22:55:00,59.3,54.8,29.93,North,0,0.0,0.0,85,0.00,,,0.00,VWS V14.00,2013-06-02 03:55:00,
2013-06-01 23:00:00,59.0,54.5,29.93,North,0,0.0,0.0,85,0.00,,,0.00,VWS V14.00,2013-06-02 04:00:00,
2013-06-01 23:05:00,58.5,54.3,29.94,North,0,0.0,0.0,86,0.00,,,0.00,VWS V14.00,2013-06-02 04:05:00,
2013-06-01 23:10:00,58.3,54.5,29.94,North,0,0.0,0.0,87,0.00,,,0.00,VWS V14.00,2013-06-02 04:10:00,
2013-06-01 23:15:00,58.2,54.4,29.93,North,0,0.0,0.0,87,0.00,,,0.00,VWS V14.00,2013-06-02 04:15:00,
2013-06-01 23:20:00,57.9,54.1,29.94,North,0,0.0,0.0,87,0.00,,,0.00,VWS V14.00,2013-06-02 04:20:00,
2013-06-01 23:25:00,57.7,54.2,29.94,North,0,0.0,0.0,88,0.00,,,0.00,VWS V14.00,2013-06-02 04:25:00,
2013-06-01 23:30:00,57.6,54.1,29.94,North,0,0.0,0.0,88,0.00,,,0.00,VWS V14.00,2013-06-02 04:30:00,
2013-06-01 23:35:00,57.5,54.3,29.94,North,0,0.0,0.0,89,0.00,,,0.00,VWS V14.00,2013-06-02 04:35:00,
2013-06-01 23:40:00,57.4,54.2,29.94,West,270,0.0,2.0,89,0.00,,,0.00,VWS V14.00,2013-06-02 04:40:00,
2013-06-01 23:45:00,57.4,54.5,29.94,West,270,0.0,3.0,90,0.00,,,0.00,VWS V14.00,2013-06-02 04:45:00,
2013-06-01 23:50:00,57.3,54.4,29.94,West,270,3.0,5.0,90,0.00,,,0.00,VWS V14.00,2013-06-02 04:50:00,
2013-06-01 23:55:00,57.2,54.6,29.93,West,270,3.0,6.0,91,0.00,,,0.00,VWS V14.00,2013-06-02 04:55:00,